This demonstration page uses our WeatherBlox Daily Observations layout. Learn more.

41.55636, -103.73856

Hourly Observations for February 21, 2019

Temp ( °F °C ) Dew Point ( °F °C ) Humidity (%) Winds ( mph kmh ) Pressure ( in mb ) Visibility ( mi km ) Precip ( " mm )
12:58 am 00:58 Mostly Cloudy 21 -6.2 5 -14.8 51 51 WNW 9 15 29.89 1012 10 16.0934 N/A
1:58 am 01:58 Partly Cloudy 20 -6.6 6 -14.3 55 55 NW 20 31 29.87 1012 10 16.0934 N/A
2:58 am 02:58 Clear 16 -9 5 -15 62 62 WNW 10 17 29.91 1013 10 16.0934 N/A
3:58 am 03:58 Clear 14 -10.1 4 -15.3 66 66 W 9 15 29.93 1014 10 16.0934 N/A
4:58 am 04:58 Clear 14 -10.2 4 -15.5 65 65 W 9 15 29.93 1014 10 16.0934 N/A
5:58 am 05:58 Clear 15 -9.6 2 -16.8 56 56 W 10 17 29.93 1013 10 16.0934 N/A
6:58 am 06:58 Clear 17 -8.4 0 -17.9 47 47 W 8 13 29.92 1013 10 16.0934 N/A
7:58 am 07:58 Clear 20 -6.5 -1 -18.4 39 39 WSW 5 7 29.91 1013 10 16.0934 N/A
8:58 am 08:58 Partly Cloudy 21 -6.3 0 -18 39 39 Calm 29.91 1013 10 16.0934 N/A
9:58 am 09:58 Mostly Clear 14 -10 3 -16.2 61 61 SSW 9 15 29.94 1014 10 16.0934 N/A
10:58 am 10:58 Mostly Cloudy 13 -10.5 4 -15.4 68 68 S 6 9 29.96 1014 10 16.0934 N/A
11:58 am 11:58 Clear 13 -10.5 4 -15.7 66 66 SSE 5 7 29.99 1016 10 16.0934 N/A
12:58 pm 12:58 Mostly Cloudy 14 -10.1 4 -15.7 64 64 SE 5 7 30 1016 10 16.0934 N/A
1:58 pm 13:58 Mostly Cloudy 13 -10.3 5 -14.8 70 70 SE 6 9 30.02 1017 10 16.0934 N/A
2:58 pm 14:58 Cloudy 17 -8.2 8 -13.6 65 65 ESE 10 17 30.05 1018 10 16.0934 N/A
3:58 pm 15:58 Mostly Cloudy 22 -5.8 8 -13.2 56 56 E 10 17 30.04 1017 10 16.0934 N/A
4:58 pm 16:58 Cloudy with Light Snow 23 -4.9 12 -10.9 63 63 ESE 17 28 30.04 1017 9 14.48406 N/A
5:58 pm 17:58 Mostly Cloudy with Light Snow Showers 23 -4.8 17 -8.5 76 76 E 15 24 30.01 1016 7 11.26538 N/A
6:58 pm 18:58 Mostly Cloudy with Scattered Snow Showers 22 -5.5 19 -7.4 87 87 E 14 22 30 1016 4 6.43736 N/A
7:58 pm 19:58 Mostly Cloudy with Scattered Snow Showers 22 -5.7 18 -7.7 86 86 E 15 24 29.97 1015 2.75 4.425685 N/A
8:58 pm 20:58 Mostly Cloudy with Scattered Snow Showers 23 -5.2 17 -8.3 79 79 E 17 28 29.95 1014 5 8.0467 N/A
9:58 pm 21:58 Cloudy 23 -4.9 14 -10.1 67 67 E 20 31 30 1016 10 16.0934 N/A
10:58 pm 22:58 Cloudy with Light Snow Showers 22 -5.8 14 -10.1 72 72 ESE 12 19 30.04 1017 10 16.0934 N/A

Powered by AerisWeather